Weather observations for the past three days for
Omaha, Millard Airport
Metric (Imperial)
Date Time (cdt) Wind (kph) Vis. (km) Weather Sky Cond. Temperature (ºC) Relative Humidity Wind Chill (°C) Heat Index (°C) Pressure Precipitation (cm)
Air Dwpt 6 hour altimeter (cm) sea level (mb) 1 hr 3 hr 6 hr
Max. Min.
03 22:55 SE 7 16.09 Fair CLR 27.9 20.8 65% 30 75.77 0.0
03 22:35 SE 7 16.09 Fair CLR 28.1 21 65% 30 75.77 0.0
03 22:15 SE 11 16.09 Fair CLR 28.6 21.2 64% 31 75.77 0.0
03 21:55 SE 11 16.09 Fair CLR 28.5 21.5 66% 31 75.74 0.0
03 21:35 SE 11 16.09 Fair CLR 29.1 21.4 63% 32 75.74 0.0
03 21:15 SE 9 16.09 Fair CLR 29.2 21.5 63% 32 75.72 0.0
03 20:55 SE 11 16.09 Fair CLR 29.6 21.5 62% 32 75.72 0.0
03 20:35 SE 11 16.09 Fair CLR 30.1 21.6 60% 33 75.69 0.0
03 20:15 SE 13 16.09 Fair CLR 30.5 21.9 60% 34 75.67 0.0
03 19:55 SE 15 16.09 Fair CLR 31.1 22.3 59% 35 75.67 0.0
03 19:35 SE 13 16.09 Fair CLR 31.9 22.2 56% 36 75.64 0.0
03 19:15 SE 15 16.09 Fair CLR 33.1 22.1 52% 37 75.64 0.0
03 18:55 SE 17 16.09 Fair CLR 33.7 21.7 35.6 31.8 49% 38 75.64 0.0
03 18:35 SE 13 G 31 16.09 Fair CLR 34.3 21.7 48% 38 75.64 0.0
03 18:15 S 22 G 28 16.09 Fair CLR 34.7 21.5 46% 39 75.64 0.0
03 17:55 S 17 16.09 Fair CLR 35 21.7 46% 39 75.64 0.0
03 17:35 S 15 G 28 16.09 Fair CLR 35.2 21.8 46% 40 75.62 0.0
03 17:15 SE 22 G 28 16.09 Fair CLR 35.3 22.3 47% 40 75.62 0.0
03 16:55 S 20 G 31 16.09 Fair CLR 35.2 22.2 47% 40 75.62 0.0
03 16:35 S 20 G 31 16.09 Fair CLR 35.1 22 47% 40 75.64 0.0
03 16:15 S 20 G 31 16.09 Fair CLR 35.2 22.1 47% 40 75.64 0.0
03 15:55 S 22 G 31 16.09 Fair CLR 35.3 22.1 46% 40 75.64 0.0
03 15:35 S 19 G 35 16.09 Fair CLR 35 21.6 46% 39 75.67 0.0
03 15:15 S 20 G 33 16.09 Fair CLR 34.8 21.4 46% 39 75.67 0.0
03 14:55 S 20 G 31 16.09 Fair CLR 35 20.9 44% 38 75.69 0.0
03 14:35 S 17 16.09 Fair CLR 34.4 22.5 50% 39 75.69 0.0
03 14:15 SE 19 16.09 Fair CLR 33.6 22.5 52% 38 75.72 0.0
03 13:55 S 20 G 26 16.09 Fair CLR 33.3 22 52% 37 75.74 0.0
03 13:35 SE 19 16.09 Fair CLR 32.8 22.2 54% 37 75.77 0.0
03 13:15 S 13 16.09 Fair CLR 32.3 22.1 55% 36 75.77 0.0
03 12:55 S 13 16.09 Fair CLR 31.6 21.3 31.6 24 54% 35 75.79 0.0
03 12:35 S 17 16.09 Fair CLR 31.3 21.5 56% 34 75.82 0.0
03 12:15 S 19 G 28 16.09 Partly Cloudy SCT110 30.9 21.3 57% 34 75.82 0.0
03 11:55 S 9 16.09 Partly Cloudy SCT120 30.2 21 58% 33 75.84 0.0
03 11:35 S 7 16.09 Partly Cloudy SCT120 29.1 20.9 61% 31 75.82 0.0
03 11:15 S 15 16.09 Light Rain SCT039 SCT060 BKN110 28.5 20.9 63% 31 75.84 0.0
03 10:55 SE 15 16.09 Mostly Cloudy BKN110 28.2 20.9 65% 30 75.82 0.0
03 10:35 SE 15 16.09 Mostly Cloudy BKN120 28.4 20.6 63% 30 75.84 0.0
03 10:15 E 6 16.09 Partly Cloudy SCT120 27.6 20.5 65% 29 75.84 0.0
03 09:55 SE 7 16.09 Mostly Cloudy BKN120 27.2 20.5 67% 29 75.84 0.0
03 09:35 SE 13 16.09 Thunderstorm in Vicinity SCT120 27.6 20.9 67% 30 75.82 0.0
03 09:15 SE 13 16.09 Mostly Cloudy BKN120 26.4 20.3 69% 28 75.82 0.0
03 08:55 SE 13 16.09 Partly Cloudy SCT120 27.1 20.9 69% 29 75.82 0.0
03 08:35 SE 7 16.09 Thunderstorm in Vicinity SCT120 25.6 21.4 78% 27 75.82 0.0
03 08:15 Calm 16.09 Mostly Cloudy BKN110 25 21.5 81% 26 75.84 0.0
03 07:55 Calm 16.09 Thunderstorm in Vicinity OVC110 24.4 21.3 83% 25 75.82 0.0
03 07:35 Calm 16.09 Thunderstorm in Vicinity OVC110 24 21.3 85% 24 75.84 0.0
03 07:15 Calm 16.09 Thunderstorm in Vicinity OVC110 25.4 19.9 72% 26 75.82 0.0
03 06:55 Calm 16.09 Thunderstorm in Vicinity OVC110 26.4 19.7 28.5 22.6 67% 28 75.82 0.0 0.13
03 06:35 Calm 16.09 Thunderstorm in Vicinity OVC110 24.9 20.5 77% 26 75.79 0.0
03 06:15 Calm 16.09 Thunderstorm in Vicinity BKN110 23.6 21.2 86% 75.79 0.0
03 05:55 Calm 16.09 Thunderstorm in Vicinity SCT060 SCT085 BKN110 23.1 21.8 92% 75.79 0.0 0.13
03 05:35 Calm 16.09 Thunderstorm in Vicinity BKN110 22.6 21.7 95% 75.79 0.0 0.1
03 05:15 Calm 16.09 Mostly Cloudy BKN110 24.3 20.3 78% 25 75.79 0.0 0.1
03 04:55 Calm 16.09 Thunderstorm in Vicinity BKN110 26.2 19.1 65% 27 75.77 0.0
03 04:35 SE 7 16.09 Partly Cloudy SCT120 26.3 19 64% 27 75.77 0.0
03 04:15 SE 9 16.09 Thunderstorm SCT120 26.9 18.9 62% 28 75.77 0.0
03 03:55 SE 6 16.09 Partly Cloudy SCT120 27.1 18.8 61% 28 75.77 0.0
03 03:35 S 9 16.09 Partly Cloudy SCT120 27.5 18.8 59% 29 75.77 0.0
03 03:15 SE 6 16.09 Partly Cloudy SCT120 27.5 18.7 59% 29 75.77 0.0
03 02:55 S 7 16.09 Mostly Cloudy BKN120 28 18.7 57% 29 75.79 0.0
03 02:35 S 9 16.09 Mostly Cloudy BKN120 28 18.8 57% 29 75.79 0.0
03 02:15 SE 11 16.09 Fair CLR 27.8 18.8 58% 29 75.79 0.0
03 01:55 SE 9 16.09 Fair CLR 28.1 19 58% 29 75.79 0.0
03 01:35 SE 11 16.09 Partly Cloudy SCT120 28.5 19 56% 30 75.79 0.0
03 01:15 SE 13 16.09 Mostly Cloudy BKN110 28.3 19.1 57% 30 75.79 0.0
03 00:55 SE 9 16.09 Mostly Cloudy BKN120 28 19.1 34.5 28 58% 29 75.79 0.0
03 00:35 SE 9 16.09 Fair CLR 28.3 19 57% 30 75.79 0.0
03 00:15 S 13 16.09 Fair CLR 28.6 19 56% 30 75.79 0.0
02 23:55 S 11 16.09 Fair CLR 28.9 19 55% 30 75.79 0.0
02 23:35 S 11 16.09 Fair CLR 29 19 55% 30 75.79 0.0
02 23:15 S 11 16.09 Fair CLR 29 19 55% 30 75.79 0.0
02 22:55 SE 9 16.09 Fair CLR 28.3 19.1 57% 30 75.79 0.0
02 22:35 SE 9 16.09 Fair CLR 28.4 19.2 57% 30 75.79 0.0
02 22:15 SE 9 16.09 Fair CLR 28.5 19.1 57% 30 75.79 0.0
02 21:55 SE 9 16.09 Fair CLR 29 19.2 56% 30 75.79 0.0
02 21:35 SE 11 16.09 Fair CLR 29 19.4 56% 30 75.77 0.0
02 21:15 SE 11 16.09 Fair CLR 29.1 19.7 57% 31 75.77 0.0
02 20:55 SE 11 16.09 Fair CLR 29.6 20 56% 31 75.74 0.0
02 20:35 SE 11 16.09 Fair CLR 30.2 20.3 55% 32 75.74 0.0
02 20:15 SE 11 16.09 Fair CLR 30.9 20.5 54% 33 75.72 0.0
02 19:55 SE 11 16.09 Fair CLR 31.4 20.7 53% 34 75.72 0.0
02 19:35 SE 9 16.09 Fair CLR 32.6 21.1 51% 36 75.72 0.0
02 19:15 S 11 16.09 Fair CLR 33.6 20.7 47% 37 75.72 0.0
02 18:55 S 13 16.09 Fair CLR 34.5 20.5 44% 37 75.74 0.0
02 18:35 S 9 16.09 Fair CLR 35.1 20.6 43% 38 75.74 0.0
02 18:15 S 9 16.09 Fair CLR 35.5 20.1 40% 38 75.74 0.0
02 17:55 S 15 16.09 Fair CLR 35.5 19.8 40% 38 75.74 0.0
02 17:35 S 17 16.09 Fair CLR 35.6 20 40% 38 75.74 0.0
02 17:15 S 20 G 26 16.09 Fair CLR 36 20.5 40% 39 75.74 0.0
02 16:55 S 15 16.09 Fair CLR 36 20.8 41% 40 75.74 0.0
02 16:35 SW 15 16.09 Fair CLR 36.3 20 38% 39 75.77 0.0
02 16:15 S 9 G 26 16.09 Fair CLR 36.1 20.3 40% 39 75.77 0.0
02 15:55 S 11 16.09 Fair CLR 36.2 20.6 40% 40 75.77 0.0
02 15:35 S 20 G 26 16.09 Fair CLR 35.5 20 40% 38 75.79 0.0
02 15:15 S 13 G 26 16.09 Fair CLR 35 20.2 42% 38 75.79 0.0
02 14:55 S 13 G 30 4.83 Fair with Haze CLR 34.7 19.8 42% 37 75.82 0.0
02 14:35 SW 17 0.00 Fair CLR 34.1 19.3 42% 36 75.82 0.0
02 14:15 S 13 16.09 Partly Cloudy SCT120 0 0 0% 75.84 0.0
02 13:55 SW 9 G 26 16.09 Partly Cloudy SCT120 0 0 0% 75.84 0.0
02 13:35 S 17 16.09 Partly Cloudy SCT120 0 0 0% 75.87 0.0
02 13:15 S 13 16.09 Fair CLR 0 0 0% 75.87 0.0
02 12:55 S 7 16.09 Fair CLR 0 0 0% 75.9 0.0 0.03
02 12:35 S 11 16.09 Fair CLR 0 0 0% 75.92 0.0
02 12:15 S 15 16.09 Fair CLR 0 0 0% 75.92 0.0
02 11:55 S 9 16.09 Partly Cloudy SCT120 0 0 0% 75.92 0.0
02 11:35 S 9 16.09 Partly Cloudy SCT120 0 0 0% 75.92 0.0
02 10:55 S 9 16.09 Mostly Cloudy BKN110 0 0 0% 75.95 0.0
02 10:35 SE 7 16.09 Mostly Cloudy BKN110 0 0 0% 75.95 0.0
02 10:15 S 11 16.09 Mostly Cloudy BKN110 0 0 0% 75.92 0.0
02 09:55 SE 6 16.09 Mostly Cloudy BKN110 0 0 0% 75.92 0.0 0.03 0.03
02 09:35 Calm 16.09 Mostly Cloudy BKN110 0 0 0% 75.92 0.0 0.03
02 09:15 S 6 G 28 16.09 Mostly Cloudy SCT049 SCT085 BKN120 0 0 0% 75.92 0.0 0.03
02 08:55 S 7 16.09 Light Rain SCT050 SCT075 BKN110 0 0 0% 75.95 0.0
02 08:35 SE 11 16.09 Fair CLR 0 0 0% 75.95 0.0
02 08:15 SE 9 16.09 Thunderstorm in Vicinity CLR 0 0 0% 75.97 0.0
02 07:55 Calm 16.09 Fair CLR 0 0 0% 75.97 0.0
02 07:35 Calm 16.09 Fair CLR 0 0 0% 75.97 0.0
02 07:15 Calm 16.09 Fair CLR 0 0 0% 75.95 0.0
02 06:55 Calm 16.09 Fair CLR 0 0 0% 75.95 0.0
02 06:35 Calm 16.09 Fair CLR 0 0 0% 75.92 0.0
02 06:15 Calm 16.09 Fair CLR 0 0 0% 75.92 0.0
02 05:55 Calm 16.09 Fair CLR 0 0 0% 75.92 0.0
02 05:35 Calm 16.09 Partly Cloudy SCT120 0 0 0% 75.95 0.0
02 05:15 Calm 16.09 Partly Cloudy SCT120 0 0 0% 75.95 0.0
02 04:55 Calm 16.09 Fair CLR 0 0 0% 75.95 0.0
02 04:35 Calm 16.09 Fair CLR 0 0 0% 75.95 0.0
02 04:15 Calm 16.09 Fair CLR 0 0 0% 75.95 0.0
02 03:55 Calm 16.09 Fair CLR 0 0 0% 75.95 0.0
02 03:35 Calm 16.09 Fair CLR 0 0 0% 75.97 0.0
02 03:15 N 7 16.09 Fair CLR 0 0 0% 75.95 0.0
02 02:35 Calm 16.09 Fair CLR 0 0 0% 75.9 0.0
02 02:15 Calm 16.09 Thunderstorm in Vicinity CLR 0 0 0% 75.9 0.0
02 01:55 SW 9 16.09 Fair CLR 0 0 0% 75.92 0.0
02 01:35 Calm 16.09 Fair CLR 0 0 0% 75.92 0.0
02 01:15 S 6 16.09 Fair CLR 0 0 0% 75.87 0.0
02 00:55 SE 6 16.09 Fair CLR 0 0 0% 75.87 0.0
02 00:35 SE 6 16.09 Fair CLR 0 0 0% 75.87 0.0
02 00:15 SE 7 16.09 Fair CLR 0 0 0% 75.87 0.0
01 23:55 SE 6 16.09 Fair CLR 0 0 0% 75.87 0.0
01 23:35 SE 11 16.09 Fair CLR 0 0 0% 75.87 0.0
01 23:15 SE 11 16.09 Fair CLR 0 0 0% 75.9 0.0
01 22:55 SE 9 16.09 Fair CLR 0 0 0% 75.9 0.0
01 22:35 Calm 16.09 Fair CLR 0 0 0% 75.9 0.0
01 22:15 Calm 16.09 Partly Cloudy SCT120 0 0 0% 75.87 0.0
01 21:55 SE 7 16.09 Fair CLR 0 0 0% 75.87 0.0
01 21:35 SE 6 16.09 Partly Cloudy SCT120 0 0 0% 75.84 0.0
01 21:15 SE 6 16.09 Fair CLR 0 0 0% 75.84 0.0
01 20:55 SE 6 16.09 Fair CLR 0 0 0% 75.82 0.0
01 20:35 SE 6 16.09 Fair CLR 0 0 0% 75.79 0.0
01 20:15 SE 7 16.09 Fair CLR 0 0 0% 75.77 0.0
01 19:55 SE 7 16.09 Fair CLR 0 0 0% 75.77 0.0
01 19:35 S 7 16.09 Fair CLR 0 0 0% 75.77 0.0
01 19:15 S 9 16.09 Fair CLR 0 0 0% 75.77 0.0
01 18:55 S 9 16.09 Fair CLR 0 0 0% 75.79 0.0
01 18:35 S 9 16.09 Fair CLR 0 0 0% 75.79 0.0
01 18:15 S 6 16.09 Fair CLR 0 0 0% 75.79 0.0
01 17:55 SW 9 16.09 Fair CLR 0 0 0% 75.82 0.0
01 17:35 S 9 16.09 Fair CLR 0 0 0% 75.82 0.0
01 17:15 S 19 G 30 16.09 Fair CLR 0 0 0% 75.82 0.0
01 16:55 S 15 16.09 Fair CLR 0 0 0% 75.84 0.0
01 16:35 S 13 16.09 Fair CLR 0 0 0% 75.84 0.0
01 16:15 S 17 G 26 16.09 Fair CLR 0 0 0% 75.87 0.0
01 15:55 S 13 G 28 16.09 Fair CLR 0 0 0% 75.87 0.0
01 15:35 S 13 16.09 Fair CLR 0 0 0% 75.9 0.0
01 15:15 S 17 G 28 16.09 Fair CLR 0 0 0% 75.92 0.0
01 14:55 S 17 G 30 16.09 Fair CLR 0 0 0% 75.95 0.0
01 14:35 S 13 16.09 Fair CLR 0 0 0% 75.95 0.0
01 14:15 S 11 16.09 Fair CLR 0 0 0% 75.95 0.0
01 13:55 SE 13 16.09 Fair CLR 0 0 0% 75.97 0.0
01 13:35 SE 15 16.09 Fair CLR 0 0 0% 75.97 0.0
01 13:15 S 9 16.09 Fair CLR 0 0 0% 76 0.0
01 12:55 S 7 16.09 Fair CLR 0 0 0% 76 0.0
01 12:35 S 9 16.09 Fair CLR 0 0 0% 76.02 0.0
01 12:15 S 9 16.09 Fair CLR 0 0 0% 76.02 0.0
01 11:55 S 11 16.09 Fair CLR 0 0 0% 76.02 0.0
01 11:35 SE 13 16.09 Fair CLR 0 0 0% 76.05 0.0
01 11:15 S 7 16.09 Fair CLR 0 0 0% 76.05 0.0
01 10:55 S 11 16.09 Fair CLR 0 0 0% 76.05 0.0
01 10:35 SW 7 16.09 Fair CLR 0 0 0% 76.02 0.0
01 10:15 SW 7 16.09 Fair CLR 0 0 0% 76.02 0.0
01 09:55 SW 7 16.09 Fair CLR 0 0 0% 76.05 0.0
01 09:35 S 6 16.09 Fair CLR 0 0 0% 76.05 0.0
01 09:15 SE 7 16.09 Fair CLR 0 0 0% 76.07 0.0
01 08:55 SE 7 16.09 Fair CLR 0 0 0% 76.05 0.0
01 08:35 SE 11 16.09 Fair CLR 0 0 0% 76.05 0.0
01 08:15 SE 9 16.09 Fair CLR 0 0 0% 76.07 0.0
01 07:55 SE 9 16.09 Fair CLR 0 0 0% 76.05 0.0
01 07:35 SE 9 16.09 Fair CLR 0 0 0% 76.05 0.0
01 07:15 SE 9 16.09 Fair CLR 0 0 0% 76.02 0.0
01 06:55 SE 7 16.09 Fair CLR 0 0 0% 76 0.0
01 06:35 SE 6 16.09 Fair CLR 0 0 0% 76.02 0.0
01 06:15 SE 7 16.09 Fair CLR 0 0 0% 76.02 0.0
01 05:55 SE 6 16.09 Partly Cloudy SCT110 23.7 21.5 88% 76.02 0.0
01 05:35 SE 6 16.09 Partly Cloudy SCT110 23.9 21.8 88% 24 76.02 0.0
01 05:15 SE 6 16.09 Partly Cloudy SCT120 0 0 0% 76.02 0.0
01 04:55 SE 7 16.09 Partly Cloudy SCT110 0 0 0% 76.02 0.0
01 04:35 SE 7 16.09 Mostly Cloudy BKN120 0 0 0% 76.05 0.0
01 04:15 SE 9 16.09 Overcast OVC110 0 0 0% 76.02 0.0
01 03:55 Calm 16.09 Overcast OVC110 0 0 0% 76.05 0.0
01 03:35 SE 6 16.09 Mostly Cloudy BKN110 0 0 0% 76.02 0.0
01 03:15 Calm 16.09 Mostly Cloudy BKN110 0 0 0% 76.02 0.0
01 02:55 Calm 16.09 Partly Cloudy SCT110 0 0 0% 76.05 0.0
01 02:35 Calm 16.09 Fair CLR 0 0 0% 76.02 0.0
01 02:15 Calm 16.09 Fair CLR 0 0 0% 76.05 0.0
01 01:55 Calm 16.09 Fair CLR 0 0 0% 76.05 0.0
01 01:35 Calm 16.09 Fair CLR 0 0 0% 76.05 0.0
01 01:15 Calm 16.09 Fair CLR 0 0 0% 76.05 0.0
01 00:55 Calm 16.09 Fair CLR 0 0 0% 76.05 0.0
01 00:35 Calm 16.09 Fair CLR 0 0 0% 76.07 0.0
01 00:15 Calm 16.09 Fair CLR 0 0 0% 76.07 0.0
31 23:55 Calm 16.09 Fair CLR 0 0 0% 76.07 0.0
31 23:35 Calm 16.09 Fair CLR 0 0 0% 76.07 0.0
31 23:15 Calm 16.09 Fair CLR 0 0 0% 76.07 0.0
Date Time (cdt) Wind (kph) Vis. (km) Weather Sky Cond. Air Dwpt Max. Min. Relative Humidity Wind Chill (°C) Heat Index (°C) altimeter (cm) sea level (mb) 1 hr 3 hr 6 hr
6 hour
Temperature (ºC) Pressure Precipitation (cm)